www.pogodaiklimat.ru

Погода и климат >> Архив погоды >> Монголия >> Цогт-Овоо


ПОГОДА в Цогт-Овоо

  • Прогноз погоды в Цогт-Овоо
  • Монитор погоды в Цогт-Овоо

АРХИВ ПОГОДЫ в Цогт-Овоо

Время (UTC), дата Ветер
(напр.,м/с)
 
Видим.   Явления Облачность Т
(С)
Тd
(С)
f
(%)
Тe
(С)
Тes
(С)
Комфортность P
(гПа)
Po
(гПа)
Тmin
(С)
Tmax
(С)
R
(мм)
R24
(мм)
S
(см)
15 15.09 В 4 50 км 6/0
[Ac trans]
+13.1 -4.5 29 +12 +12 1019.3 873.0
18 15.09 В 5 50 км 3/0
[Cs]
+11.2 -4.6 33 +9 +9 1019.0 871.9
21 15.09 В 4 50 км 3/0
[Cs]
+9.3 -3.0 42 +7 +7 1019.1 871.0
00 16.09 В 2 50 км ясно +10.3 -2.9 39 +9 +10 1018.5 871.0 +8.5
03 16.09 Ю 2 50 км ясно +17.6 -0.3 30 +18 +27 1015.0 871.4
06 16.09 З 6 50 км 1/1 1000 м
[Cu hum]
+22.5 -8.9 11 +20 +24 1010.1 869.3
09 16.09 З 8 50 км 1/1 1000 м
[Cu hum]
+21.7 -0.9 22 +21 +22 комфорт 1009.7 868.7
12 16.09 С 4 50 км ясно +17.2 -7.7 17 +17 +17 1013.8 870.2 +22.8
15 16.09 С 3 50 км ясно +13.6 -8.2 21 +13 +13 1017.8 871.9
18 16.09 СВ 5 50 км ясно +12.0 -5.6 29 +10 +10 1020.8 873.8
21 16.09 штиль 0 50 км ясно +8.0 -6.2 36 +8 +8 1025.3 875.7
00 17.09 штиль 0 50 км ясно +11.6 -4.1 33 +12 +13 1026.2 878.3 +6.3
03 17.09 В 3 50 км ясно +15.5 -3.2 27 +15 +22 1026.0 879.9
06 17.09 Ю 2 50 км 1/1 1000 м
[Cu hum]
+18.8 -3.2 22 +19 +29 1023.5 879.3
09 17.09 С 1 50 км ясно +19.9 -3.2 21 +21 +24 комфорт 1022.0 878.4
12 17.09 В 4 50 км ясно +16.3 -3.4 26 +16 +16 1024.1 878.7 +20.5
15 17.09 В 5 50 км ясно +13.4 -3.0 32 +12 +12 1027.0 879.8
18 17.09 В 3 50 км ясно +11.4 -2.9 37 +10 +10 1028.0 879.7
21 17.09 В 2 50 км ясно +9.5 -2.6 43 +8 +8 1028.9 879.5
00 18.09 В 3 50 км 9/0
[Cc]
+11.9 -3.0 35 +11 +11 1027.8 879.7 +8.1
03 18.09 Ю 6 50 км 9/0
[Cs]
+20.1 -4.7 18 +20 +22 1022.7 879.2
06 18.09 З 5 50 км 9/0
[Cs]
+22.9 -8.5 12 +21 +25 комфорт 1018.4 876.7
09 18.09 З 5 50 км 9/0
[Ac lent Cs]
+22.6 -7.7 13 +21 +22 комфорт 1016.9 875.3
12 18.09 СЗ 3 50 км 9/0
[Ac lent]
+19.1 -7.6 16 +19 +19 1019.1 875.7 +23.8
15 18.09 штиль 0 50 км 8/0
[Ac lent Cs]
+15.4 -7.4 20 +16 +16 1021.1 875.7
18 18.09 В 2 50 км 8/0
[Ac lent Cs]
+13.1 -6.6 25 +13 +13 1021.5 874.9
21 18.09 Ю 1 50 км 9/0
[Ac lent Cs]
+13.1 -6.4 25 +14 +14 1020.6 874.2
00 19.09 З 5 50 км 8/0
[Ac As Ci fib]
+14.7 -5.9 24 +14 +14 1020.2 874.5 +12.2
03 19.09 СЗ 11 50 км 9/0
[As trans]
+19.5 -0.6 26 +19 +19 1017.8 874.7
06 19.09 СЗ 10 50 км 8/0
[Ac As Ci fib]
+20.4 -0.1 25 +20 +20 1016.6 874.1
09 19.09 СЗ 6 50 км 8/3
[Sc Ac As]
+20.5 -0.7 24 +20 +21 1016.6 874.2
12 19.09 СЗ 5 50 км 4/0
[Ac lent]
+16.6 -0.4 31 +16 +16 1020.0 875.2 +21.0
15 19.09 СЗ 1 50 км ясно +13.2 -0.5 39 +14 +14 1023.4 876.6
18 19.09 С 6 50 км ясно +13.1 +0.6 42 +11 +11 1023.5 876.6
21 19.09 штиль 0 50 км ясно +8.5 +0.2 56 +8 +8 1026.8 877.3
00 20.09 штиль 0 50 км ясно +8.7 +0.2 55 +8 +9 1027.9 878.3 +6.8
03 20.09 ЮЗ 1 50 км ясно +17.8 +1.9 34 +19 +29 1023.5 878.8
06 20.09 СЗ 3 50 км 3/3 1000 м
[Cu hum]
+21.4 -1.4 22 +21 +27 комфорт 1020.1 877.5
09 20.09 штиль 0 50 км 4/4 1000 м
[Cu hum]
+22.9 -1.5 20 +22 +24 комфорт 1018.5 876.9
12 20.09 штиль 0 50 км 3/0
[Ac lent]
+18.9 -2.5 23 +19 +19 1021.1 877.2 +23.0
15 20.09 штиль 0 50 км 3/0
[Ac lent]
+15.0 -2.9 29 +15 +15 1023.9 878.0
18 20.09 штиль 0 50 км 3/0
[Ac trans]
+12.3 -3.3 34 +12 +12 1024.9 877.4
21 20.09 В 1 50 км ясно +11.0 -2.8 38 +11 +11 1025.3 877.1
00 21.09 В 2 50 км 3/0
[Cs]
+12.0 -0.9 41 +11 +12 1025.6 877.9 +8.6
03 21.09 Ю 1 50 км 4/0
[Cs]
+20.6 -1.1 23 +22 +30 комфорт 1021.1 878.0
06 21.09 ЮЗ 4 50 км 8/3 1000 м
[Cu hum Ci fib]
+24.8 -2.8 16 +23 +27 комфорт 1016.8 876.2
09 21.09 С 2 50 км 8/4 1000 м
[Cu med, cong Cs]
+24.7 -3.5 15 +23 +24 комфорт 1016.2 875.7
12 21.09 СЗ 2 50 км 5/0
[Cs]
+20.7 -4.0 19 +21 +21 комфорт 1018.9 876.2 +25.9
15 21.09 В 2 50 км 3/0
[Cs]
+16.3 -4.2 24 +17 +17 1022.2 877.0
18 21.09 штиль 0 50 км 4/0
[Ac lent Ci fib]
+12.3 -4.9 30 +12 +12 1024.5 877.1
21 21.09 штиль 0 50 км ясно +10.4 -4.9 34 +10 +10 1025.7 877.1
00 22.09 В 1 50 км 1/0
[Ac lent]
+13.1 -3.0 33 +14 +14 1025.2 878.0 +9.7
03 22.09 ЮЗ 2 50 км 1/1 1000 м
[Cu hum]
+21.1 -1.2 22 +21 +28 комфорт 1021.2 878.4
06 22.09 З 4 50 км 3/3 1000 м
[Cu hum]
+25.4 -2.7 15 +23 +28 комфорт 1017.0 876.7
09 22.09 З 3 50 км 5/5 600 м
[Cb calv]
+25.8 -4.3 13 +23 +24 комфорт 1015.8 875.8
12 22.09 штиль 0 50 км 4/0
[Ac lent]
+20.3 -4.6 18 +20 +20 1019.8 876.8 +26.4

 

Местоположение метеостанции Цогт-Овоо (Монголия): широта 44.42 долгота 105.31 высота над уровнем моря 1298 м.

В архиве по умолчанию представлена погода в Цогт-Овоо за последнюю неделю. Архивные данные за месяц целиком и за предыдущие месяцы, начиная с января 2011 года, Вы можете получить, выбрав интересующий диапазон дат из раскрывающегося списка и нажав кнопку "Ввод!".


*Определитесь, кто Вы:
робот инопланетянин человек

Внимание! Время в таблицах - всемирное. Для получения местного времени необходимо прибавить поправку, которая равна 8 ч.

Смотрите также архив погоды в соседних городах и на ближайших метеорологических станциях:

Погода в Даланзадгаде (Монголия) (118 км)
Погода на Баян Добо Сума (Монголия) (149 км)
Погода в Сайкхан-Ову (Монголия) (160 км)
Погода в Мандалгоби (Монголия) (168 км)
Погода в Ханбогде (Монголия) (201 км)
Погода в Богде (Монголия) (251 км)
Погода в Арвайхээре (Монголия) (285 км)
Погода в Бат Олжий Вунд (Монголия) (307 км)
Погода в Чойре (Монголия) (320 км)
Погода в Хужирте (Монголия) (340 км)

Пояснения к столбцам:

Ветер - указаны скорость ветра в м/с - средняя за 10 мин, порывы в срок и между сроками (в фигурных скобках) и направление, откуда дует ветер: С - северный, СВ - северо-восточный, В - восточный, ЮВ - юго-восточный, Ю - южный, ЮЗ - юго-западный, З - западный, СЗ - северо-западный.
Видимость - горизонтальная дальность видимости в метрах или километрах. При видимости от 1 до 10 км при отсутствии осадков обычно наблюдается дымка, при ухудшении видимости до 1 км и менее - туман. В сухую погоду видимость может ухудшаться дымом, пылью или мглою.
Явления - указаны атмосферные явления, наблюдавшиеся в срок или в последний час перед сроком; фигурными скобками обозначены явления, наблюдавшиеся между сроками (за 1-3 часа до срока); квадратными скобками обозначены град или гололедные отложения с указанием их диаметра в мм.
Облачность - указаны через наклонную черту общая и нижняя облачность в баллах и высота нижней границы облаков в метрах; квадратными скобками обозначены формы облаков: Ci - перистые, Cs - перисто-слоистые, Cc - перисто-кучевые, Ac - высококучевые, As - высокослоистые, Sc - слоисто-кучевые, Ns - слоисто-дождевые, Cu - кучевые, Cb - кучево-дождевые. Подробнее классификацию облаков см. в Атласе облаков (PDF).
T - Температура воздуха - температура, измеренная на высоте 2 м над землей.
Td - Температура точки росы - температура, при понижении до которой содержащийся в воздухе водяной пар достигнет насыщения.
f - Относительная влажность воздуха - влажноcть воздуха, измеренная на высоте 2 м над землей.
Te - Эффективная температура - температура, которую ощущает одетый по сезону человек в тени. Характеристика душности погоды. При расчете учитывается влияние влажности воздуха и скорости ветра на теплоощущения человека.
Tes - Эффективная температура на солнце - температура, которую ощущает человек, с поправкой на солнечный нагрев. Характеристика знойности погоды. Зависит от высоты солнца над горизонтом, облачности и скорости ветра. Ночью, в пасмурную погоду, а также при ветре 12 м/с и более поправка равна нулю.
P - Атмосферное давление - приведенное к уровню моря атмосферное давление.
Po - Атмосферное давление - измеренное на уровне метеостанции атмосферное давление.
Tmin - Минимальная температура - минимум температуры воздуха на высоте 2 м над землей.
Tmax - Максимальная температура - максимум температуры воздуха на высоте 2 м над землей.
R - Количество осадков - Количество выпавших осадков за период времени, мм. При наведении курсора мыши на число - период времени, за который выпало указанное количество осадков.
R24 - Количество осадков - Количество выпавших осадков за 24 часа, мм.
S - Снежный покров - Высота снежного покрова, см. При наведении курсора мыши на число - состояние снежного покрова и степень покрытия местности в баллах.